STARLINK-1065

Last updated on Thu Dec 12 2019 00:02:04 GMT+0000 (Coordinated Universal Time)

1 44770U 19074BK 19345.58335648 -.00075669 00000-0 -20612-2 0 9995 2 44770 53.0061 23.9274 0001214 62.5137 315.8085 15.37135064 4704

Satellite not in orbit